GEFSSE_con_cape1000_162.txt.gz
Probability
23 23 39 52 52 61 68 68 71 71 61 65 58 58 68 61 61 55 58 61 65 71 71 71 71 68 65 68 65 68 68 68 74 68 58 61 65 68 77 77 77 71 68
16 16 35 48 55 55 55 58 55 58 61 55 55 52 48 52 45 52 52 55 52 55 55 65 74 68 68 61 61 65 68 68 71 65 58 68 68 58 65 71 71 87 71
16 19 29 42 52 52 52 48 48 45 45 48 45 45 45 32 42 42 42 48 52 55 52 58 65 71 71 68 68 61 65 65 61 61 61 61 71 65 61 68 61 65 74
10 16 16 32 42 42 45 45 42 35 23 29 23 23 29 29 29 29 32 35 39 48 45 52 48 48 52 58 61 58 61 61 55 52 52 55 65 55 58 52 52 45 65
6 16 32 42 39 35 35 39 26 19 13 13 13 13 23 19 19 19 19 16 19 23 29 32 32 39 32 48 55 58 52 48 39 45 55 65 74 58 55 48 48 48 61
6 13 29 45 35 35 32 26 13 13 13 10 10 10 10 16 16 16 13 10 6 16 16 16 19 32 32 35 42 45 52 35 42 52 55 61 68 65 58 48 52 42 48
6 10 13 29 35 32 26 13 10 10 10 10 10 10 10 13 6 6 3 0 3 6 10 10 6 13 23 23 32 35 32 32 42 45 45 55 68 52 45 48 52 42 39
6 6 10 23 23 16 10 13 13 13 13 13 6 10 10 3 0 0 0 3 3 6 10 10 13 10 10 23 23 23 19 26 23 32 39 45 58 48 48 42 48 45 42
3 3 3 3 3 6 13 10 10 10 10 10 10 10 10 0 0 0 0 0 0 6 6 10 10 10 10 13 19 19 23 23 16 32 29 35 48 45 48 42 39 42 39
3 3 3 0 0 0 6 6 6 6 6 6 10 3 0 0 0 0 0 0 0 6 3 3 3 3 6 10 13 19 19 13 13 13 29 39 48 45 45 52 42 39 42
3 3 0 0 0 3 0 0 6 6 3 3 0 0 0 0 0 0 0 3 0 0 0 0 0 0 3 10 10 6 13 13 13 16 23 32 32 45 42 42 48 39 42
0 0 0 0 0 0 0 0 3 3 3 0 0 0 0 0 0 0 0 0 0 0 0 3 0 0 3 3 3 3 10 13 10 10 16 35 29 42 42 35 35 39 39
0 0 0 0 0 0 0 0 3 3 3 0 0 0 0 0 0 0 0 0 0 0 0 0 0 0 3 6 3 3 3 6 10 13 13 13 16 39 42 35 35 35 42
0 0 0 0 0 0 0 3 3 0 0 0 0 0 0 0 0 0 0 0 0 0 0 0 3 3 3 6 6 3 3 6 6 10 13 16 16 26 35 32 29 35 42
0 0 0 0 0 0 0 0 0 0 0 0 0 0 0 0 0 0 0 0 0 0 0 0 0 0 3 3 3 3 6 3 3 3 10 13 19 26 32 32 39 35 29
0 0 0 0 0 0 0 0 0 0 0 0 0 0 0 0 0 0 0 0 0 0 0 0 0 0 0 3 3 3 6 3 3 6 10 13 19 23 26 29 35 45 32
0 0 0 0 0 0 0 0 0 0 0 0 0 0 0 0 0 0 0 0 0 0 0 0 0 0 0 3 6 3 3 3 3 3 6 13 19 19 26 19 23 32 32
0 0 0 0 0 3 3 3 3 0 0 0 0 0 0 0 0 0 0 0 0 0 3 3 0 0 3 6 6 6 6 6 3 3 10 13 16 10 13 16 16 19 13
0 0 0 3 3 3 3 3 3 3 3 0 0 0 0 0 0 0 0 0 0 0 3 0 3 0 6 6 3 3 10 10 6 0 6 10 13 19 19 10 13 13 19
0 0 3 3 3 3 3 3 3 3 3 0 0 0 0 0 0 0 0 0 0 0 0 0 0 0 3 3 0 0 6 6 6 0 3 10 13 6 16 10 16 10 16
0 0 3 3 3 3 3 3 3 3 0 0 0 0 0 0 0 0 0 0 0 0 0 0 0 0 0 3 3 0 3 0 0 10 3 19 10 13 13 13 10 13 13
0 0 0 0 0 0 6 0 0 0 0 0 0 0 0 0 0 0 0 0 0 0 0 0 3 3 0 0 3 0 0 0 3 0 6 13 10 10 6 6 10 13 16
0 0 0 0 0 0 0 0 0 0 0 0 0 0 0 0 0 0 0 0 0 0 0 0 0 3 3 0 0 3 3 0 0 6 0 10 13 10 6 10 10 13 10
0 0 0 0 0 0 0 0 0 0 0 0 0 0 0 0 0 0 0 0 0 0 0 0 0 0 3 3 3 0 0 3 3 0 3 6 10 10 10 6 13 16 13
0 0 0 0 0 0 0 0 0 0 0 0 0 0 0 0 0 0 0 0 0 0 3 3 3 3 0 0 6 3 3 0 0 0 3 3 6 13 10 6 13 13 16
0 0 0 0 0 0 0 0 0 0 0 0 0 0 0 0 0 0 0 0 0 0 0 3 3 3 0 0 0 0 0 0 3 0 3 3 3 3 6 13 16 16 16

GEFSSE_con_cape1000_168.txt.gz
Probability
29 26 68 61 65 65 65 61 61 65 58 61 58 58 48 61 52 58 61 55 61 61 71 74 74 74 74 71 68 71 68 61 61 68 71 61 55 71 84 81 84 74 77
13 13 65 61 58 55 55 52 52 52 55 48 45 42 35 39 45 45 48 52 52 52 55 61 65 61 65 61 65 68 65 61 61 68 65 68 61 71 74 74 77 74 77
10 13 45 55 55 45 45 35 39 39 39 39 39 39 35 35 45 48 48 48 45 45 48 52 52 52 55 55 55 48 52 58 65 61 74 58 61 68 65 61 65 68 71
6 13 19 48 39 39 32 26 23 26 23 26 16 19 19 16 19 26 19 29 32 42 39 39 42 42 48 48 58 55 45 48 58 65 55 52 45 65 65 61 58 58 71
10 10 29 45 42 35 29 23 19 13 16 16 16 13 13 16 16 10 16 19 23 26 23 29 32 35 39 39 35 42 48 48 55 65 55 48 48 61 58 65 55 52 58
10 13 26 39 35 32 26 19 13 10 10 10 13 13 13 13 10 6 10 13 19 19 19 16 26 29 29 29 32 35 35 45 42 39 48 55 48 52 55 58 52 52 61
6 6 13 32 29 23 19 16 16 10 10 10 10 10 6 6 10 10 6 10 10 13 10 10 13 13 19 23 23 26 32 32 32 32 48 52 52 55 45 48 48 52 52
3 6 13 26 26 19 13 13 13 13 6 6 10 10 6 6 3 0 0 3 3 3 3 6 10 10 10 10 10 10 16 23 19 13 35 32 58 52 39 45 48 39 45
3 3 3 3 6 13 13 13 10 10 10 10 6 6 6 0 0 0 3 3 3 3 6 6 10 6 6 10 13 19 23 32 13 10 19 32 58 48 45 42 45 42 48
3 3 3 3 3 3 3 10 13 6 6 6 6 3 3 3 0 0 0 3 3 3 3 3 6 3 3 10 13 13 32 23 10 10 19 39 58 45 39 29 35 39 45
3 3 0 3 3 0 0 3 6 6 6 3 3 6 3 0 0 0 0 0 0 0 0 0 0 0 6 6 16 16 19 10 6 10 16 52 52 48 32 29 32 32 35
3 3 0 0 0 0 0 0 0 0 0 0 0 0 0 0 0 0 0 0 0 0 0 0 0 3 3 6 6 13 3 6 10 6 19 55 45 42 39 39 42 35 35
3 0 0 0 0 0 0 0 0 0 0 0 0 0 0 0 0 0 0 0 0 0 0 0 3 3 6 6 3 6 3 6 6 6 23 55 42 32 39 42 45 42 32
0 0 3 0 0 0 0 0 0 0 0 0 0 0 0 0 0 0 0 0 0 0 0 0 0 0 0 0 6 0 0 6 3 6 16 45 42 29 35 35 45 48 45
0 0 0 0 0 0 0 0 0 0 0 0 0 0 0 0 0 0 0 0 0 0 0 0 0 0 0 0 0 0 3 3 6 10 10 35 29 23 23 35 35 52 48
0 0 0 0 0 0 0 0 0 0 0 0 0 0 0 0 0 0 0 0 0 0 0 0 0 0 0 0 0 0 0 3 0 3 6 6 29 26 23 32 39 35 42
0 0 0 0 0 0 0 0 0 0 0 0 0 0 0 0 0 0 0 0 0 0 0 0 0 0 0 0 0 0 0 3 0 0 0 6 6 23 42 26 32 39 35
0 0 0 0 0 0 0 3 0 0 0 0 0 0 0 0 0 0 0 0 0 0 0 0 0 0 0 0 0 0 0 0 0 0 0 6 6 6 23 32 35 42 26
0 0 0 0 0 0 3 3 3 0 0 0 0 0 0 0 0 0 0 0 0 0 0 0 0 0 0 0 0 0 0 0 0 0 0 6 6 6 10 19 26 35 32
0 0 0 0 3 3 3 3 3 0 0 0 0 0 0 0 0 0 0 0 0 0 0 0 0 0 0 0 0 0 0 0 0 0 0 3 10 10 6 6 6 10 19
0 0 0 0 3 3 3 3 3 3 0 0 0 0 0 0 0 0 0 0 0 0 0 0 0 0 0 0 0 0 0 0 0 3 3 3 6 6 3 3 6 6 10
0 0 3 3 3 3 3 0 3 3 0 0 0 0 0 0 0 0 0 0 0 0 0 0 0 0 0 0 0 0 0 0 0 0 0 0 3 3 0 3 3 3 3
0 0 0 3 3 0 0 0 0 0 0 0 0 0 0 0 0 0 0 0 0 0 0 0 0 0 0 0 3 0 0 0 0 0 0 0 0 0 0 3 0 3 6
0 0 0 0 0 0 0 0 0 0 0 0 0 0 0 0 0 0 0 0 0 0 0 0 0 0 0 0 0 0 0 0 0 0 0 0 0 0 3 6 3 3 3
0 0 0 0 0 0 0 0 0 0 0 0 0 0 0 0 0 0 0 0 0 0 0 0 3 3 0 0 0 0 0 0 0 0 0 0 0 0 3 3 6 6 3
0 0 0 0 0 0 0 0 0 0 0 0 0 0 0 0 0 0 0 0 0 0 0 0 3 0 0 0 0 0 0 0 0 0 0 0 0 0 0 3 6 6 6

GEFSSE_con_cape1000_174.txt.gz
Probability
16 29 65 68 68 81 81 81 77 74 77 77 77 77 74 65 65 65 61 61 68 65 58 58 68 65 55 61 61 65 65 65 61 68 68 65 71 81 77 77 68 65 61
13 32 65 71 71 71 74 74 68 71 61 65 58 58 55 52 55 55 55 48 48 52 55 61 61 58 58 52 52 58 58 65 58 61 58 48 58 71 71 71 68 58 65
19 35 48 58 58 65 61 65 58 58 52 52 55 52 48 48 42 45 45 45 52 48 45 42 45 48 48 48 52 45 45 48 52 58 52 35 45 61 68 58 58 65 65
13 19 32 52 52 48 39 48 45 39 42 42 39 42 32 29 26 26 32 32 42 39 39 39 35 32 35 45 48 45 42 45 52 48 26 32 35 61 55 55 52 58 61
19 19 42 48 39 39 35 35 35 32 32 29 32 26 23 23 16 16 16 32 32 26 32 32 32 29 29 32 39 42 45 42 42 39 16 13 29 61 58 55 52 52 58
16 19 39 42 45 39 32 32 23 19 19 23 19 16 16 19 16 16 26 29 23 23 23 23 19 19 26 32 35 42 39 32 35 13 13 13 32 65 58 65 58 58 55
10 16 32 32 23 16 16 19 19 19 16 16 13 13 13 10 10 10 10 13 19 16 13 19 13 16 23 26 26 29 39 32 13 10 10 19 29 58 58 58 45 48 58
6 10 16 19 16 13 19 16 16 13 13 6 6 10 10 10 3 0 6 6 13 13 6 6 6 10 10 16 23 29 26 32 6 6 16 19 55 55 48 48 45 52 55
3 6 13 10 13 13 13 13 13 10 10 6 6 6 6 6 3 0 3 6 3 3 3 6 6 10 10 16 23 26 32 35 3 3 10 16 52 42 48 48 52 45 45
3 3 3 3 3 6 10 13 10 10 6 6 10 6 6 3 0 0 3 3 3 3 0 3 0 10 13 23 26 29 23 13 0 6 6 32 39 35 42 45 42 29 39
3 3 3 3 3 3 3 6 10 10 6 10 3 3 0 0 0 0 0 3 3 0 0 0 3 6 6 10 16 26 16 3 0 3 6 42 42 42 39 35 32 29 35
3 3 3 3 3 3 3 3 3 3 0 0 0 0 0 0 0 0 0 3 3 0 0 3 6 6 0 0 3 3 0 0 0 3 26 48 45 42 45 39 32 23 35
0 0 0 0 0 0 0 0 0 0 0 0 0 0 0 0 0 0 0 0 0 0 0 0 0 0 0 0 0 0 0 0 0 3 19 52 42 42 39 39 32 35 39
0 0 0 0 0 0 0 0 0 0 0 0 0 0 0 0 0 0 0 0 0 0 0 0 0 0 0 0 0 0 0 3 3 3 16 42 39 42 29 39 45 48 48
0 0 0 0 0 0 0 0 0 0 0 0 0 0 0 0 0 0 0 0 0 0 0 0 0 0 0 0 0 0 0 0 0 0 6 39 45 42 35 29 35 45 45
0 0 0 0 0 0 0 0 0 0 0 0 0 0 0 0 0 0 0 0 0 0 0 0 0 0 0 0 0 0 0 0 0 0 3 6 35 48 45 32 29 35 48
0 0 0 0 0 0 0 0 0 0 0 0 0 0 0 0 0 0 0 0 0 0 0 0 0 0 0 0 0 0 0 0 0 0 0 0 3 39 48 45 39 29 39
0 0 0 0 0 0 0 0 0 0 0 0 0 0 0 0 0 0 0 0 0 0 0 0 0 0 0 0 0 0 0 0 0 0 0 0 3 6 23 39 45 35 39
0 0 0 0 0 0 0 0 0 0 0 0 0 0 0 0 0 0 0 0 0 0 0 0 0 0 0 0 0 0 0 0 0 0 0 0 0 0 3 19 32 39 39
0 0 0 0 0 0 0 0 0 0 0 0 0 0 0 0 0 0 0 0 0 0 0 0 0 0 0 0 0 0 0 0 0 0 0 0 0 0 0 3 10 19 29
0 0 0 0 0 0 0 0 0 0 0 0 0 0 0 0 0 0 0 0 0 0 0 0 0 0 0 0 0 0 0 0 0 0 0 0 0 3 3 3 0 0 3
0 0 0 0 0 0 0 0 0 0 0 0 0 0 0 0 0 0 0 0 0 0 0 0 0 0 0 0 0 0 0 0 0 0 0 0 0 0 0 0 0 3 3
0 0 0 0 0 0 0 0 0 0 0 0 0 0 0 0 0 0 0 0 0 0 0 0 0 0 0 0 0 0 0 0 0 0 0 0 0 0 0 0 0 0 0
0 0 0 0 0 0 0 0 0 0 0 0 0 0 0 0 0 0 0 0 0 0 0 0 0 0 0 0 0 0 0 0 0 0 0 0 0 0 0 0 0 0 0
0 0 0 0 0 0 0 0 0 0 0 0 0 0 0 0 0 0 0 0 0 0 0 0 0 0 0 0 0 0 0 0 0 0 0 0 0 0 0 0 0 0 0
0 0 0 0 0 0 0 0 0 0 0 0 0 0 0 0 0 0 0 0 0 0 0 0 0 0 0 0 0 0 0 0 0 0 0 0 0 0 0 0 0 0 0

GEFSSE_con_cape1000_180.txt.gz
Probability
6 6 39 42 52 65 65 68 68 74 74 74 65 65 65 55 48 58 58 58 55 58 61 61 58 58 61 58 58 61 71 65 68 65 68 65 65 71 68 61 52 52 61
6 10 35 45 55 65 61 65 68 65 61 55 45 48 48 48 48 48 52 48 48 52 58 55 58 55 55 65 61 61 58 55 61 58 55 52 55 61 65 68 58 52 52
13 13 39 55 58 55 48 42 52 52 45 42 42 42 39 45 45 48 45 48 52 52 48 45 48 45 52 55 55 61 58 55 55 52 45 29 48 55 45 52 52 55 55
10 10 19 39 45 42 39 39 42 35 35 39 35 35 35 35 35 39 42 35 39 32 42 42 42 45 45 52 48 42 52 58 55 48 23 29 42 39 55 45 52 55 52
6 10 26 35 39 35 39 35 29 32 32 32 35 32 32 35 35 32 26 23 23 26 26 29 32 32 35 42 42 39 45 45 48 29 16 16 23 35 55 48 55 52 55
6 6 23 39 39 35 35 23 26 26 29 29 19 19 13 16 16 23 23 16 19 19 23 19 26 29 35 32 35 42 39 42 26 13 13 13 26 42 58 48 55 55 58
6 6 10 29 29 26 19 16 13 10 13 16 13 13 13 16 10 13 13 13 10 10 16 16 16 29 35 35 35 39 39 39 6 6 6 10 26 55 42 45 48 58 61
3 3 10 19 13 13 13 13 13 10 10 10 6 10 6 13 6 6 6 6 10 10 10 13 13 19 23 35 32 32 39 35 13 10 16 13 42 52 48 42 48 55 52
3 3 3 6 10 10 13 6 10 6 6 6 6 3 3 3 3 3 3 3 6 6 6 6 13 19 23 26 23 23 23 23 3 3 10 16 42 42 48 55 42 48 48
3 3 3 3 6 3 6 6 6 6 6 3 3 3 3 3 0 0 0 3 3 3 3 3 6 10 19 23 19 23 13 3 0 3 6 16 39 35 48 55 42 45 45
3 3 3 3 3 3 3 6 6 6 3 3 3 3 3 0 0 0 0 0 3 6 6 6 6 16 16 13 10 10 3 3 0 0 6 26 29 35 39 45 39 42 42
0 3 3 3 3 3 3 3 3 3 3 3 0 0 0 0 0 0 0 0 0 3 3 3 3 3 0 0 0 0 0 0 0 0 6 35 32 35 42 32 45 42 45
0 0 3 0 0 0 0 0 0 0 0 0 0 0 0 0 0 0 0 0 0 0 0 0 0 0 0 0 0 0 0 0 0 3 10 39 42 42 45 48 42 45 42
0 0 0 0 0 0 0 0 0 0 0 0 0 0 0 0 0 0 0 0 0 0 0 0 0 0 0 0 0 0 0 0 0 0 0 32 35 39 29 32 35 39 39
0 0 0 0 0 0 0 0 0 0 0 0 0 0 0 0 0 0 0 0 0 0 0 0 0 0 0 0 0 0 0 0 0 3 0 16 29 32 32 23 32 48 45
0 0 0 0 0 0 0 0 0 0 0 0 0 0 0 0 0 0 0 0 0 0 0 0 0 0 0 0 0 0 0 0 0 0 0 6 26 35 32 19 29 32 35
0 0 0 0 0 0 0 0 0 0 0 0 0 0 0 0 0 0 0 0 0 0 0 0 0 0 0 0 0 0 0 0 0 0 0 0 3 16 32 29 26 23 19
0 0 0 0 0 0 0 0 0 0 0 0 0 0 0 0 0 0 0 0 0 0 0 0 0 0 0 0 0 0 0 0 0 0 0 0 0 0 6 26 29 32 26
0 0 0 0 0 0 0 0 0 0 0 0 0 0 0 0 0 0 0 0 0 0 0 0 0 0 0 0 0 0 0 0 0 0 0 0 0 0 3 3 23 23 23
0 0 0 0 0 0 0 0 0 0 0 0 0 0 0 0 0 0 0 0 0 0 0 0 0 0 0 0 0 0 0 0 0 0 0 0 0 0 0 0 0 3 16
0 0 0 0 0 0 0 0 0 0 0 0 0 0 0 0 0 0 0 0 0 0 0 0 0 0 0 0 0 0 0 0 0 0 0 0 0 0 0 0 0 0 0
0 0 0 0 0 0 0 0 0 0 0 0 0 0 0 0 0 0 0 0 0 0 0 0 0 0 0 0 0 0 0 0 0 0 0 0 0 0 0 0 0 0 0
0 0 0 0 0 0 0 0 0 0 0 0 0 0 0 0 0 0 0 0 0 0 0 0 0 0 0 0 0 0 0 0 0 0 0 0 0 0 0 0 0 0 0
0 0 0 0 0 0 0 0 0 0 0 0 0 0 0 0 0 0 0 0 0 0 0 0 0 0 0 0 0 0 0 0 0 0 0 0 0 0 0 0 0 0 0
0 0 0 0 0 0 0 0 0 0 0 0 0 0 0 0 0 0 0 0 0 0 0 0 0 0 0 0 0 0 0 0 0 0 0 0 0 0 0 0 0 0 0
0 0 0 0 0 0 0 0 0 0 0 0 0 0 0 0 0 0 0 0 0 0 0 0 0 0 0 0 0 0 0 0 0 0 0 0 0 0 0 0 0 0 0

GEFSSE_con_cape1000_186.txt.gz
Probability
10 13 29 32 42 52 61 65 61 61 61 48 55 52 45 52 55 58 48 58 58 61 61 61 58 65 61 61 68 74 71 65 65 65 65 68 74 65 61 58 55 45 61
10 13 19 32 42 48 45 42 48 58 48 48 45 42 45 42 45 45 48 52 52 55 58 61 58 61 61 65 65 68 61 61 61 58 65 65 68 65 61 61 61 65 52
10 10 19 32 35 35 39 39 42 39 39 35 32 35 42 42 39 42 45 48 52 48 48 55 48 55 55 52 61 65 58 58 45 52 55 52 52 48 48 61 55 55 52
13 13 19 29 29 26 32 32 29 32 26 26 26 26 26 29 35 32 35 42 35 35 39 39 48 48 48 52 48 48 52 55 39 35 45 48 42 42 58 58 58 52 42
13 13 26 29 23 23 23 23 29 26 26 23 26 26 19 19 19 19 19 23 23 32 32 29 39 42 42 45 52 45 45 42 32 39 45 52 55 52 45 52 55 55 45
10 10 19 19 19 19 19 23 19 23 23 19 19 16 13 13 10 16 16 19 16 23 26 26 29 32 32 42 42 42 35 32 32 35 52 48 52 48 42 42 52 61 61
10 10 13 19 19 16 13 10 13 13 19 16 10 6 6 10 13 16 13 10 13 16 16 23 29 35 35 45 45 39 32 26 23 26 45 48 48 48 39 48 45 52 55
6 6 6 6 13 13 10 13 16 16 16 13 16 10 6 10 10 13 6 6 10 10 13 16 26 26 26 32 35 35 29 19 13 16 29 45 45 39 39 42 45 48 48
6 6 3 6 3 3 13 6 6 13 10 6 3 3 3 3 3 6 6 6 3 6 13 13 23 26 19 23 19 16 19 19 16 19 16 39 42 45 42 39 48 55 48
3 3 3 3 3 6 6 6 6 3 3 3 3 3 3 3 0 0 3 3 3 6 6 13 16 13 16 10 10 19 13 6 10 19 26 23 29 35 45 42 45 58 39
3 3 3 3 3 6 6 3 3 3 3 3 3 3 3 0 0 0 0 3 0 6 6 10 6 10 10 6 13 10 6 10 13 13 19 19 23 29 42 35 32 35 42
3 3 3 3 3 3 3 3 3 3 3 3 3 3 0 0 0 0 0 0 0 0 6 6 6 6 3 3 0 6 6 6 6 13 19 26 23 23 23 39 39 35 35
3 3 3 3 3 3 3 3 3 3 3 3 3 0 0 0 0 0 0 0 0 0 0 3 3 6 3 3 3 3 6 6 6 6 19 35 26 23 26 42 45 45 35
0 3 0 3 3 3 3 3 3 3 3 3 0 0 0 0 0 0 0 0 0 0 3 0 3 3 3 0 0 3 3 6 6 13 32 39 26 26 29 35 52 45 35
0 0 0 0 0 3 3 0 3 3 0 0 0 0 0 0 0 0 0 0 0 0 0 3 3 3 3 0 0 0 3 3 10 6 13 23 23 26 35 35 35 32 39
0 0 0 0 0 0 3 0 0 0 3 0 0 0 0 0 0 0 0 0 0 0 0 0 3 3 3 0 3 0 0 3 3 10 10 19 23 26 26 29 26 23 29
0 0 0 0 0 0 0 0 3 3 0 0 0 0 0 0 0 0 0 0 0 0 0 0 3 3 3 0 0 0 0 3 6 3 6 13 19 19 19 19 16 23 29
0 0 0 0 0 0 0 0 0 0 0 0 0 0 0 0 0 0 0 0 0 0 0 0 3 3 3 3 6 0 3 16 0 0 13 13 16 10 13 16 16 16 13
0 0 0 0 0 0 0 0 0 0 0 0 0 0 0 0 0 0 0 0 0 0 0 0 0 6 3 6 3 6 10 10 10 6 6 6 13 10 16 16 16 16 10
0 0 0 0 0 0 3 0 0 0 0 0 0 0 0 0 0 0 0 0 0 0 0 0 3 0 6 0 0 0 6 13 6 6 6 6 6 6 13 13 16 6 16
0 0 3 0 0 3 3 3 3 0 0 0 0 0 0 0 0 0 0 0 0 0 0 0 0 0 0 0 0 6 6 6 3 6 6 3 3 3 6 16 16 10 13
0 0 0 0 0 3 3 3 6 3 0 0 0 0 0 0 0 0 0 0 0 0 0 0 0 0 0 0 3 0 0 0 3 3 6 3 3 3 10 6 3 6 10
0 0 0 0 0 3 3 3 0 0 0 0 0 0 0 0 0 0 0 0 0 0 0 0 0 0 0 0 0 0 0 0 0 10 10 10 10 13 10 10 6 3 6
0 0 0 3 0 3 3 6 6 6 3 3 0 0 0 0 0 0 0 0 0 0 0 0 0 0 0 0 0 0 0 3 0 0 6 10 13 13 13 3 6 6 10
0 0 0 0 3 0 3 6 6 6 3 3 0 0 0 0 0 0 0 0 0 0 0 0 0 0 3 0 0 0 0 0 0 0 3 10 6 10 16 10 13 13 10
3 0 0 0 6 3 3 3 6 3 3 3 0 0 0 0 0 0 0 0 0 0 0 0 0 0 0 0 0 0 3 0 3 0 3 0 6 13 6 6 0 6 6

GEFSSE_con_cape1000_192.txt.gz
Probability
16 19 42 42 52 52 58 65 55 48 45 45 48 45 48 45 35 45 45 55 52 48 52 52 58 58 65 68 71 68 68 68 68 68 71 71 74 71 68 74 68 71 74
13 26 48 45 45 52 52 48 45 42 35 39 35 35 35 42 42 45 48 45 52 52 48 52 48 58 68 65 68 65 61 55 55 65 71 71 68 71 71 77 77 68 68
13 16 32 42 39 39 39 32 32 32 26 26 29 35 35 35 35 35 35 39 39 45 45 45 39 45 58 61 65 55 55 48 45 52 61 48 55 65 68 77 71 71 65
13 10 19 32 45 39 35 29 26 26 29 29 29 32 32 35 35 35 35 32 32 32 35 32 42 48 48 55 52 48 39 45 48 55 35 42 45 65 65 68 65 58 65
13 13 26 39 39 35 32 26 23 23 23 19 19 19 23 26 39 32 29 29 32 29 29 32 39 45 48 42 48 48 39 42 58 52 32 39 32 58 65 61 65 61 58
13 13 26 35 32 26 19 23 26 26 19 16 16 16 13 16 16 19 19 23 23 23 26 26 35 39 39 35 35 35 45 45 42 29 35 35 39 45 58 52 55 61 52
10 10 13 23 19 13 16 23 23 23 19 19 16 13 6 16 16 13 16 13 19 23 23 26 32 29 35 32 39 32 32 45 26 29 32 29 42 55 55 55 52 55 61
6 6 6 16 13 13 19 19 19 19 19 13 13 13 13 13 13 10 13 16 13 19 23 26 29 29 19 26 26 26 26 35 29 23 29 29 45 48 45 58 55 55 58
3 3 3 3 6 13 16 10 13 13 10 6 6 10 10 6 6 3 10 3 10 13 13 13 10 13 13 13 13 16 29 32 10 13 19 29 45 42 45 48 45 52 58
3 3 3 3 3 6 6 6 3 3 3 3 3 3 6 10 6 6 3 6 6 6 6 3 6 6 10 6 16 13 13 19 6 16 19 26 42 45 42 42 48 48 52
3 3 3 3 3 3 3 3 3 3 3 3 3 3 0 0 0 0 3 10 0 3 3 3 6 10 10 10 16 16 16 6 6 10 16 35 35 39 39 35 35 39 48
3 3 3 3 3 3 3 3 3 3 3 3 3 0 0 0 0 0 0 3 3 6 6 6 13 10 6 3 6 13 0 6 6 6 16 39 32 29 32 32 35 39 45
3 3 3 3 3 3 3 3 3 0 0 0 3 0 0 0 0 0 0 0 0 0 0 0 6 3 3 3 3 3 6 6 6 10 13 45 35 32 32 29 35 45 42
3 3 3 3 3 3 3 3 3 0 0 0 0 0 0 0 0 0 0 0 0 0 0 3 0 0 0 0 0 0 6 6 6 10 16 42 26 35 42 45 35 32 45
3 3 3 3 0 3 3 3 0 0 0 0 0 0 0 0 0 0 0 0 0 3 3 0 0 0 0 0 0 0 6 6 6 6 6 39 39 32 32 39 32 29 32
0 3 3 3 0 0 3 3 0 0 0 0 0 0 0 0 0 0 0 0 0 0 3 3 0 0 0 0 0 0 3 3 3 3 13 16 32 32 29 29 29 19 26
0 0 3 3 0 0 0 0 0 0 0 0 0 0 0 0 0 0 0 0 0 0 0 0 0 0 0 0 0 0 3 3 3 3 3 6 16 29 32 26 19 23 26
0 0 0 0 0 0 0 0 0 0 0 0 0 0 0 0 0 0 0 0 0 0 0 0 0 0 0 0 0 0 3 6 3 3 3 10 10 13 19 32 32 23 16
0 0 0 0 0 0 0 0 0 0 0 0 0 0 0 0 0 0 0 0 0 0 0 0 0 0 3 0 0 3 3 3 3 3 3 10 10 13 13 19 26 19 26
0 0 0 0 0 0 0 0 0 0 0 0 0 0 0 0 0 0 0 0 0 0 0 0 0 0 0 0 0 0 0 0 3 3 3 3 6 13 6 6 6 6 26
0 0 0 0 0 0 0 0 0 3 0 0 0 0 0 0 0 0 0 0 0 0 0 0 0 0 0 0 0 0 0 0 0 0 3 0 0 6 10 13 13 3 3
0 0 0 0 0 0 0 0 0 0 0 0 0 0 0 0 0 0 0 0 0 0 0 0 0 0 0 0 0 0 0 0 0 0 0 0 0 0 0 6 0 0 0
0 0 0 0 0 0 0 3 3 6 3 3 0 0 0 0 0 0 0 0 0 0 0 0 0 0 0 0 0 0 0 0 0 0 0 0 0 0 0 0 0 0 0
3 0 0 3 3 0 0 3 6 6 3 3 0 0 0 0 0 0 0 0 0 0 0 0 0 0 0 0 0 0 0 0 0 0 0 0 0 0 0 0 0 0 0
0 0 0 0 0 0 0 3 6 6 6 3 0 0 0 0 0 0 0 0 0 0 0 0 0 0 0 0 0 0 0 0 0 0 0 0 0 0 0 0 0 0 0
3 0 3 3 3 3 6 3 6 6 6 3 3 0 0 0 0 0 0 0 0 0 0 0 0 0 0 0 0 0 0 0 0 0 0 0 0 0 0 0 0 0 0

GEFSSE_con_cape1000_198.txt.gz
Probability
10 29 45 55 65 65 61 61 61 58 65 65 65 58 58 65 61 61 58 55 52 52 48 48 52 61 68 68 68 71 74 74 68 65 65 61 61 68 65 74 68 71 77
10 19 48 55 52 58 55 48 48 48 52 48 45 48 45 45 52 55 55 52 48 39 48 45 48 55 65 61 65 65 55 52 65 65 68 55 55 65 65 74 61 58 61
13 23 42 45 48 48 39 42 48 39 32 39 42 42 42 39 45 39 48 45 42 32 39 42 42 52 52 52 58 52 48 52 55 48 35 32 45 58 68 71 65 61 58
10 16 26 52 45 35 35 32 35 35 32 32 35 39 42 39 39 42 42 42 42 32 39 39 42 45 52 48 52 45 48 52 42 39 29 26 35 55 61 61 65 61 68
10 13 35 35 39 32 35 32 32 32 35 32 29 35 39 39 35 32 32 26 29 29 32 35 35 35 39 45 39 42 42 42 39 23 16 16 29 55 61 65 61 61 61
10 16 29 35 32 29 29 29 26 26 29 32 32 29 29 26 29 32 29 19 23 19 23 35 32 32 26 26 29 39 35 32 23 16 16 23 29 58 52 61 61 55 58
6 16 23 29 26 26 26 26 26 26 19 16 13 19 19 23 29 23 16 23 23 23 26 29 23 23 16 23 32 35 35 29 10 10 13 16 32 52 48 55 61 52 55
6 10 16 32 26 26 23 23 23 23 16 13 10 16 16 13 10 13 16 16 16 19 23 23 26 19 13 19 23 32 26 19 16 13 16 23 39 35 42 42 48 52 55
3 3 10 10 16 23 19 19 19 16 16 16 23 13 13 13 10 10 13 13 13 10 10 10 16 16 16 16 23 23 19 19 6 10 16 19 35 39 35 39 55 55 58
3 3 6 6 6 6 10 13 13 13 10 13 13 13 13 13 10 3 6 6 6 3 3 3 6 10 10 23 26 13 13 10 6 10 13 19 32 29 32 32 45 48 58
3 3 3 3 3 3 3 6 6 6 6 6 6 13 0 0 0 0 3 3 3 3 3 10 10 13 10 13 16 16 6 0 6 10 10 39 29 26 32 35 48 52 61
3 3 3 3 3 3 3 3 3 3 3 0 0 0 0 0 0 0 3 3 6 6 3 10 16 10 3 0 0 3 0 0 6 10 16 32 29 29 26 35 45 45 58
3 3 3 3 3 3 0 0 0 0 0 0 0 0 0 0 0 0 0 0 0 0 0 0 0 0 0 0 0 3 3 6 6 10 16 32 35 23 26 29 39 39 52
0 3 3 3 0 0 0 0 0 0 0 0 0 0 0 0 0 0 0 0 0 0 0 0 0 0 0 0 0 3 3 6 6 10 10 39 35 32 35 35 35 48 58
0 0 3 3 0 0 0 0 0 0 0 0 0 0 0 0 0 0 0 0 0 0 0 0 0 0 0 0 0 3 6 6 6 6 10 23 45 29 29 29 42 45 48
0 0 0 3 0 0 0 0 0 0 0 0 0 0 0 0 0 0 0 0 0 0 0 0 0 0 0 0 0 3 0 3 3 3 3 13 26 32 26 19 32 39 39
0 0 0 0 0 0 0 0 0 0 0 0 0 0 0 0 0 0 0 0 0 0 0 0 0 0 0 0 0 0 0 0 0 3 3 3 6 19 29 29 32 32 32
0 0 0 0 0 0 0 0 0 0 0 0 0 0 0 0 0 0 0 0 0 0 0 0 0 0 0 0 0 0 0 3 0 3 3 3 3 6 10 26 26 19 19
0 0 0 0 0 0 0 0 0 0 0 0 0 0 0 0 0 0 0 0 0 0 0 0 0 0 0 0 0 0 0 0 0 3 3 3 3 3 3 10 19 19 23
0 0 0 0 0 0 0 0 0 0 0 0 0 0 0 0 0 0 0 0 0 0 0 0 0 0 0 0 0 0 0 0 0 0 0 3 3 3 0 3 0 10 13
0 0 0 0 0 0 0 0 0 0 0 0 0 0 0 0 0 0 0 0 0 0 0 0 0 0 0 0 0 0 0 0 0 0 0 0 0 3 0 0 0 0 0
0 0 0 0 0 0 0 0 0 0 0 0 0 0 0 0 0 0 0 0 0 0 0 0 0 0 0 0 0 0 0 0 0 0 0 0 0 0 0 0 0 0 0
0 0 0 0 0 0 0 0 0 0 0 0 0 0 0 0 0 0 0 0 0 0 0 0 0 0 0 0 0 0 0 0 0 0 0 0 0 0 0 0 0 0 0
0 0 0 0 0 0 0 0 0 0 0 0 0 0 0 0 0 0 0 0 0 0 0 0 0 0 0 0 0 0 0 0 0 0 0 0 0 0 0 0 0 0 0
0 0 0 0 0 0 0 0 0 0 0 0 0 0 0 0 0 0 0 0 0 0 0 0 0 0 0 0 0 0 0 0 0 0 0 0 0 0 0 0 0 0 0
0 0 0 0 0 0 0 0 0 0 0 0 0 0 0 0 0 0 0 0 0 0 0 0 0 0 0 0 0 0 0 0 0 0 0 0 0 0 0 0 0 0 0

GEFSSE_con_cape1000_204.txt.gz
Probability
6 6 32 55 58 55 58 58 65 71 61 58 58 55 52 58 55 55 55 55 58 58 55 61 68 68 68 65 68 68 74 68 68 65 58 52 61 68 68 68 71 68 65
6 19 42 48 52 52 52 52 48 52 48 55 55 52 55 48 52 55 45 42 45 48 52 55 58 61 65 58 58 68 52 55 61 58 58 55 55 68 65 65 68 68 71
10 19 32 48 52 45 42 42 42 39 45 45 45 42 45 48 48 42 42 39 39 42 42 45 48 55 55 52 48 52 52 55 45 42 39 32 42 61 58 55 65 68 65
6 6 16 45 42 45 39 39 35 32 29 35 39 39 39 39 39 42 29 29 39 39 35 39 35 39 42 45 48 42 39 42 45 32 16 19 29 45 48 55 71 58 61
6 6 16 29 32 35 35 32 32 32 32 32 29 35 32 35 39 32 29 32 35 32 26 26 35 39 39 35 42 35 35 42 35 19 10 13 16 39 48 48 58 58 65
6 10 23 26 29 32 32 32 32 32 29 26 26 26 26 26 16 19 29 26 26 23 19 29 26 32 29 32 32 35 29 32 16 6 10 13 19 39 48 39 52 52 58
3 13 16 26 29 26 26 26 29 26 23 19 19 16 19 16 16 16 19 19 23 23 26 26 26 23 29 29 32 29 29 26 6 6 10 10 19 35 39 35 45 52 55
3 10 13 26 26 26 26 26 23 23 16 16 16 13 10 10 13 13 16 26 23 23 23 19 26 26 29 26 26 29 23 19 13 10 10 13 29 32 35 39 42 52 48
3 6 6 13 16 23 16 19 19 16 10 6 3 0 6 10 6 6 6 16 16 10 10 16 23 26 26 23 26 26 23 19 6 13 13 16 26 29 29 45 52 61 55
3 3 6 6 3 3 6 16 10 10 6 6 6 6 6 0 0 0 6 10 13 13 13 13 23 23 23 19 23 19 16 6 6 10 10 16 26 26 32 39 48 48 48
3 3 3 3 3 3 3 3 3 3 3 3 3 3 0 0 0 0 6 10 6 10 13 16 16 13 16 16 6 6 0 0 10 10 10 19 26 32 35 39 42 55 52
0 3 3 3 3 3 3 3 3 3 3 0 0 0 0 0 0 0 3 3 3 10 10 10 6 3 0 0 0 0 0 0 3 10 10 23 29 29 29 32 32 45 48
0 0 3 3 0 3 0 0 0 0 0 0 0 0 0 0 0 0 0 0 0 0 0 0 0 0 0 0 0 0 0 0 3 10 13 19 26 23 32 32 35 45 52
0 0 0 0 0 0 0 0 0 0 0 0 0 0 0 0 0 0 0 0 0 0 0 0 0 0 0 0 0 0 0 3 3 0 13 19 26 23 19 23 29 35 35
0 0 0 0 0 0 0 0 0 0 0 0 0 0 0 0 0 0 0 0 0 0 0 0 0 0 0 0 0 0 0 0 0 0 0 10 23 16 16 16 16 26 26
0 0 0 0 0 0 0 0 0 0 0 0 0 0 0 0 0 0 0 0 0 0 0 0 0 0 0 0 0 0 0 0 0 0 0 0 16 16 19 13 10 10 19
0 0 0 0 0 0 0 0 0 0 0 0 0 0 0 0 0 0 0 0 0 0 0 0 0 0 0 0 0 0 0 0 0 0 0 0 3 6 16 13 13 13 13
0 0 0 0 0 0 0 0 0 0 0 0 0 0 0 0 0 0 0 0 0 0 0 0 0 0 0 0 0 0 0 0 0 0 0 0 3 3 6 13 13 13 13
0 0 0 0 0 0 0 0 0 0 0 0 0 0 0 0 0 0 0 0 0 0 0 0 0 0 0 0 0 0 0 0 0 0 0 0 3 3 3 3 10 13 13
0 0 0 0 0 0 0 0 0 0 0 0 0 0 0 0 0 0 0 0 0 0 0 0 0 0 0 0 0 0 0 0 0 0 0 0 0 3 3 3 3 6 10
0 0 0 0 0 0 0 0 0 0 0 0 0 0 0 0 0 0 0 0 0 0 0 0 0 0 0 0 0 0 0 0 0 0 0 0 0 0 0 0 0 0 0
0 0 0 0 0 0 0 0 0 0 0 0 0 0 0 0 0 0 0 0 0 0 0 0 0 0 0 0 0 0 0 0 0 0 0 0 0 0 0 0 0 0 0
0 0 0 0 0 0 0 0 0 0 0 0 0 0 0 0 0 0 0 0 0 0 0 0 0 0 0 0 0 0 0 0 0 0 0 0 0 0 0 0 0 0 0
0 0 0 0 0 0 0 0 0 0 0 0 0 0 0 0 0 0 0 0 0 0 0 0 0 0 0 0 0 0 0 0 0 0 0 0 0 0 0 0 0 0 0
0 0 0 0 0 0 0 0 0 0 0 0 0 0 0 0 0 0 0 0 0 0 0 0 0 0 0 0 0 0 0 0 0 0 0 0 0 0 0 0 0 0 0
0 0 0 0 0 0 0 0 0 0 0 0 0 0 0 0 0 0 0 0 0 0 0 0 0 0 0 0 0 0 0 0 0 0 0 0 0 0 0 0 0 0 0

GEFSSE_con_cape1000_210.txt.gz
Probability
10 19 29 39 42 48 58 58 58 52 58 55 55 55 48 52 55 48 55 55 55 61 65 68 68 71 65 58 65 68 77 68 68 71 65 61 68 61 65 68 68 68 61
3 13 32 35 39 45 52 55 52 48 48 48 48 48 48 45 52 42 42 48 42 48 52 61 61 61 48 52 65 58 58 58 65 52 48 58 65 71 65 71 74 74 65
0 10 19 29 42 39 42 45 48 42 39 39 45 45 45 42 42 39 39 42 39 35 39 48 55 52 45 52 52 45 45 42 45 39 35 35 55 61 65 68 68 68 74
0 10 13 26 29 29 35 32 39 42 35 35 32 32 39 39 35 39 32 32 32 35 35 35 45 39 39 35 39 42 45 42 35 26 23 35 48 52 55 65 61 71 71
3 6 13 23 26 26 29 32 35 32 29 29 32 32 32 32 26 26 29 32 32 29 32 35 32 29 35 32 32 35 39 42 23 19 26 39 58 52 52 61 68 68 74
3 3 13 23 19 23 23 29 32 29 26 29 29 23 23 29 29 23 26 26 19 19 26 29 32 26 26 26 29 26 29 23 13 10 29 32 45 45 45 58 58 58 68
0 3 3 16 19 19 26 29 26 26 26 26 23 23 16 10 16 19 19 16 19 19 19 19 23 23 23 23 26 26 23 26 19 19 23 29 39 39 42 48 58 52 52
0 3 3 13 16 23 19 19 23 23 23 16 13 6 13 13 16 19 16 19 19 19 19 19 23 23 23 26 26 19 19 23 16 13 26 32 35 35 39 48 55 42 52
0 0 6 6 6 23 19 19 19 23 16 13 6 6 13 10 10 16 16 16 19 26 16 19 16 16 19 23 19 19 19 19 16 19 19 29 29 35 32 39 52 48 45
0 3 0 6 6 10 10 10 13 13 10 13 6 3 6 6 6 10 6 16 13 13 19 16 19 16 16 19 13 19 19 16 16 16 26 26 32 32 35 35 42 42 39
0 3 0 6 6 3 3 6 6 6 3 3 0 0 0 0 3 3 3 6 10 13 16 16 19 19 13 10 10 6 19 16 16 19 23 26 29 32 32 35 42 42 35
3 3 3 3 3 3 3 3 3 0 3 0 0 0 0 0 0 3 0 6 10 6 10 10 6 0 0 3 3 0 6 13 19 16 16 23 26 26 29 39 39 35 35
3 3 3 3 3 3 3 3 3 3 3 0 0 0 0 0 0 0 0 0 0 3 0 0 0 0 0 0 3 0 6 10 16 13 10 26 19 19 32 32 29 32 32
3 3 3 3 3 0 0 0 3 0 3 0 0 0 0 0 0 0 0 0 0 3 0 0 0 0 0 0 0 0 3 3 10 13 10 10 26 13 29 29 26 29 29
0 3 3 3 3 3 0 3 3 0 0 0 0 0 0 0 0 0 0 3 0 0 0 0 0 0 0 0 0 3 3 6 6 3 6 6 13 19 19 19 19 26 32
0 0 3 3 3 3 3 3 3 3 3 0 0 0 0 0 0 0 0 0 0 0 0 0 0 0 0 0 0 3 3 6 3 0 3 3 6 13 6 13 16 16 19
0 0 0 3 3 3 3 3 3 3 3 0 0 0 0 0 0 0 0 0 0 0 0 0 0 0 0 0 0 0 3 0 3 0 3 6 3 6 16 13 10 13 19
0 0 0 3 3 3 3 3 3 3 3 3 0 0 0 0 0 0 0 0 0 0 0 0 0 0 0 0 0 3 0 3 3 3 6 3 3 6 6 3 13 13 16
0 0 0 3 3 3 3 3 3 3 3 3 0 0 0 0 0 0 0 0 0 0 0 0 0 0 0 3 0 0 0 6 6 0 3 3 6 6 6 3 13 13 19
0 0 0 0 3 3 0 0 3 3 3 3 0 0 0 0 0 0 0 0 0 0 0 0 0 0 0 0 0 0 0 0 3 3 3 3 3 6 6 3 10 6 6
0 0 0 0 3 3 3 3 3 3 3 3 0 0 0 0 0 0 0 0 0 3 0 0 0 0 0 0 0 0 0 0 0 0 0 0 0 3 3 0 6 10 6
0 0 0 0 0 3 3 3 3 0 3 3 3 0 0 0 0 0 0 0 0 3 3 0 0 0 0 0 0 0 0 0 0 0 0 0 0 0 0 0 0 3 3
0 0 0 0 3 3 3 3 3 3 3 3 0 0 0 0 0 0 0 0 0 0 3 0 3 0 0 0 0 0 0 0 0 0 0 0 0 0 0 0 0 0 0
0 0 3 3 3 3 3 3 3 3 3 0 0 0 0 0 0 0 0 0 0 0 0 0 0 0 0 0 0 0 0 0 0 0 0 0 0 0 0 0 0 0 0
0 0 3 3 3 3 3 3 3 3 0 0 3 0 0 0 0 0 0 0 0 0 0 0 0 0 0 0 0 0 0 0 0 0 0 0 0 0 0 0 0 3 3
10 10 6 6 6 6 3 3 0 0 0 3 3 0 0 0 0 0 0 0 0 0 0 0 0 0 0 0 0 0 0 0 0 0 0 0 0 0 0 3 3 3 3

GEFSSE_con_cape1000_216.txt.gz
Probability
19 29 42 45 48 52 58 55 52 52 52 48 52 48 45 52 48 45 52 58 52 52 52 52 48 55 55 58 61 61 58 58 52 58 71 71 74 77 81 84 84 71 68
6 23 52 48 52 42 52 48 48 48 42 48 45 48 45 42 45 48 48 42 45 42 39 42 48 45 52 55 55 45 42 42 48 61 71 74 81 81 81 81 84 68 81
10 23 32 35 39 48 55 45 42 42 39 35 35 35 42 42 35 39 39 35 35 39 39 32 35 39 39 42 39 42 42 39 39 55 71 58 68 77 77 77 77 74 77
13 16 23 35 29 32 35 39 35 32 35 35 35 35 35 35 32 35 35 35 32 32 29 29 29 26 26 26 26 39 42 42 52 65 42 52 45 68 68 68 71 77 74
10 13 26 29 26 29 26 23 26 19 29 32 29 32 32 29 32 32 32 35 29 29 26 26 26 23 23 23 26 32 32 39 52 42 29 32 35 61 65 74 74 71 65
6 6 23 29 26 23 23 19 23 26 26 23 29 29 29 29 29 32 29 26 23 26 26 26 26 23 19 19 16 23 26 35 32 26 23 32 35 58 58 65 71 71 71
3 3 6 29 29 23 23 23 23 26 23 23 29 29 16 23 23 23 23 19 16 23 29 32 35 23 19 19 19 19 23 26 16 19 26 23 35 52 55 61 61 61 65
3 3 10 26 19 23 23 23 23 19 16 23 26 16 19 16 13 26 26 26 26 26 29 29 32 26 19 16 23 26 26 32 10 16 16 19 42 45 45 48 52 52 58
3 3 3 6 16 19 19 19 16 16 13 13 16 13 16 16 13 16 19 19 16 16 16 16 16 19 16 13 13 16 29 35 13 13 13 19 45 45 39 35 48 45 48
3 3 3 3 3 3 13 19 16 16 13 13 13 16 19 16 16 13 13 13 13 13 16 19 16 16 6 10 16 16 23 23 13 13 13 23 42 45 39 35 42 35 39
0 0 3 3 6 3 6 10 10 13 13 10 6 6 6 3 3 0 6 13 13 13 16 13 16 6 3 10 13 13 16 13 13 13 13 32 42 39 35 39 42 42 39
3 0 0 3 3 3 3 6 6 3 3 3 3 0 3 3 3 0 3 6 6 10 6 13 19 13 0 0 0 3 3 10 3 6 13 32 42 35 26 42 29 35 42
3 3 3 3 3 3 3 3 0 3 3 3 0 0 0 0 0 0 0 3 3 0 0 3 3 0 0 0 0 0 3 6 3 6 13 35 26 26 39 35 35 35 39
0 0 3 3 3 3 0 0 3 0 3 0 0 0 0 0 0 0 0 0 0 0 0 0 0 0 0 0 0 0 0 0 3 3 10 26 23 19 26 32 26 29 32
0 0 0 0 0 3 0 0 3 0 0 0 0 0 0 0 0 0 0 0 0 0 0 0 0 0 0 0 0 0 3 0 3 3 3 16 23 23 16 16 23 23 26
0 0 0 0 0 0 3 3 3 3 0 0 0 0 0 0 0 0 0 0 0 0 0 0 0 0 0 0 0 0 0 0 0 3 3 6 16 13 16 13 13 10 16
0 0 0 0 0 0 0 3 3 3 3 0 0 0 0 0 0 0 0 0 0 0 0 0 0 0 0 0 0 0 0 0 0 0 0 3 3 6 13 13 13 13 13
0 0 0 0 0 0 0 3 3 3 3 3 0 0 0 0 0 0 0 0 0 0 0 0 0 0 0 0 0 0 0 0 0 0 0 0 3 3 6 16 13 16 19
0 0 0 0 0 0 0 0 3 3 3 3 0 0 0 0 0 0 0 0 0 0 0 0 0 0 0 0 0 0 0 0 0 0 0 0 0 0 0 0 3 13 16
0 0 0 0 0 0 0 0 0 0 3 3 0 0 0 0 0 0 0 0 0 0 0 0 0 0 0 0 0 0 0 0 0 0 0 0 0 0 0 0 0 0 3
0 0 0 0 0 0 0 0 0 0 0 3 3 0 0 0 0 0 0 0 0 0 0 0 0 0 0 0 0 0 0 0 0 0 0 0 0 0 0 0 0 0 0
0 0 0 0 0 0 3 3 0 3 3 3 3 3 0 0 0 0 0 0 0 0 0 0 0 0 0 0 0 0 0 0 0 0 0 0 0 0 0 0 0 0 0
3 3 3 3 3 0 3 3 3 3 6 3 3 3 0 0 0 0 0 0 0 0 0 0 0 0 0 0 0 0 0 0 0 0 0 0 0 0 3 0 0 0 0
0 3 6 6 3 3 3 3 3 3 3 3 3 3 0 0 0 0 0 0 0 0 0 0 0 0 0 0 0 0 0 0 0 0 0 0 0 0 0 0 0 0 0
3 0 3 6 3 3 3 3 0 3 0 3 3 3 0 0 0 0 0 0 0 0 0 0 0 0 0 0 0 0 0 0 0 0 0 0 0 0 0 0 0 0 0
3 3 0 3 6 6 3 3 0 0 0 0 0 6 0 0 0 0 0 0 0 0 0 0 0 0 0 0 0 0 0 0 0 0 0 0 0 0 0 0 0 0 0